Tracking 30995 objects as of 5-Jul-2025
HD Live streaming from Space Station
objects crossing your sky now

STARLINK-6239

Track STARLINK-6239 now!
10-day predictions
STARLINK-6239 is classified as:


NORAD ID: 56423
Int'l Code: 2023-061BB
Perigee: 565.5 km
Apogee: 567.0 km
Inclination: 43.0 °
Period: 95.8 minutes
Semi major axis: 6937 km
RCS: Unknown
Launch date: May 4, 2023
Source: United States (US)
Launch site: AIR FORCE EASTERN TEST RANGE (AFETR)
Your satellite tracking list
STARLINK-30865
Track 1 satellite(s)




NASA's NSSDC Master Catalog

Two Line Element Set (TLE):
1 56423U 23061BB  25186.06316992  .00000459  00000-0  49044-4 0  9993
2 56423  43.0042  77.1249 0001105 270.6234  89.4482 15.02535859120096
Source of the keplerian elements: AFSPC